Hourly Weather Ruchki

Today, 3 August, Tuesday

Time Temperature Precipitation Wind Pressure Humidity
00:00 +19°C° 0 mm 6 mps 736 mmHg 90%
01:00 +17°C° 0 mm 6 mps 737 mmHg 90%
02:00 +16°C° 0 mm 6 mps 737 mmHg 88%
03:00 +16°C° 0 mm 6 mps 738 mmHg 85%
04:00 +16°C° 0 mm 5 mps 739 mmHg 82%
05:00 +15°C° 0 mm 5 mps 739 mmHg 80%
06:00 +16°C° 0 mm 5 mps 740 mmHg 77%
07:00 +16°C° 0 mm 5 mps 741 mmHg 74%
08:00 +17°C° 0 mm 5 mps 741 mmHg 72%
09:00 +19°C° 0 mm 5 mps 741 mmHg 66%
10:00 +20°C° 0 mm 5 mps 742 mmHg 61%
11:00 +21°C° 0 mm 5 mps 742 mmHg 55%
12:00 +22°C° 0 mm 5 mps 742 mmHg 52%
13:00 +22°C° 0 mm 5 mps 742 mmHg 49%
14:00 +22°C° 0 mm 4 mps 742 mmHg 46%
15:00 +22°C° 0 mm 4 mps 742 mmHg 50%
16:00 +21°C° 0 mm 4 mps 743 mmHg 55%
17:00 +21°C° 0 mm 4 mps 743 mmHg 59%
18:00 +19°C° 0 mm 4 mps 743 mmHg 65%
19:00 +18°C° 0 mm 3 mps 743 mmHg 71%
20:00 +16°C° 0 mm 2 mps 743 mmHg 77%
21:00 +15°C° 0 mm 2 mps 744 mmHg 80%
22:00 +15°C° 0 mm 2 mps 744 mmHg 82%
23:00 +14°C° 0 mm 2 mps 745 mmHg 85%

Tomorrow, 4 August, Wednesday

Time Temperature Precipitation Wind Pressure Humidity
00:00 +13°C° 0 mm 2 mps 745 mmHg 87%
01:00 +13°C° 0 mm 2 mps 746 mmHg 90%
02:00 +12°C° 0 mm 2 mps 746 mmHg 92%
03:00 +12°C° 0 mm 2 mps 746 mmHg 92%
04:00 +12°C° 0 mm 2 mps 747 mmHg 92%
05:00 +12°C° 0 mm 2 mps 747 mmHg 92%
06:00 +14°C° 0 mm 2 mps 747 mmHg 81%
07:00 +16°C° 0 mm 2 mps 748 mmHg 69%
08:00 +18°C° 0 mm 2 mps 748 mmHg 57%
09:00 +19°C° 0 mm 3 mps 748 mmHg 52%
10:00 +20°C° 0 mm 3 mps 748 mmHg 46%
11:00 +21°C° 0 mm 3 mps 749 mmHg 41%
12:00 +21°C° 0 mm 3 mps 749 mmHg 42%
13:00 +21°C° 0 mm 3 mps 749 mmHg 44%
14:00 +20°C° 0 mm 2 mps 749 mmHg 45%
15:00 +20°C° 0 mm 2 mps 749 mmHg 46%
16:00 +20°C° 0 mm 2 mps 749 mmHg 46%
17:00 +20°C° 0 mm 2 mps 749 mmHg 46%
18:00 +19°C° 0 mm 2 mps 749 mmHg 52%
19:00 +18°C° 0 mm 1 mps 749 mmHg 57%
20:00 +16°C° 0 mm 1 mps 750 mmHg 63%
21:00 +15°C° 0 mm 1 mps 750 mmHg 64%
22:00 +14°C° 0 mm 0 mps 750 mmHg 65%
23:00 +13°C° 0 mm 0 mps 750 mmHg 66%

Day after tomorrow, 5 August, Thursday

Time Temperature Precipitation Wind Pressure Humidity
00:00 +13°C° 0 mm 0 mps 750 mmHg 67%
01:00 +12°C° 0 mm 0 mps 750 mmHg 69%
02:00 +12°C° 0 mm 0 mps 750 mmHg 71%
03:00 +12°C° 0 mm 0 mps 751 mmHg 71%
04:00 +12°C° 0 mm 0 mps 751 mmHg 71%
05:00 +12°C° 0 mm 0 mps 751 mmHg 71%
06:00 +14°C° 0 mm 0 mps 751 mmHg 65%
07:00 +18°C° 0 mm 1 mps 751 mmHg 59%
08:00 +19°C° 0 mm 1 mps 751 mmHg 53%
09:00 +20°C° 0 mm 1 mps 751 mmHg 51%
10:00 +20°C° 0 mm 1 mps 751 mmHg 49%
11:00 +20°C° 0 mm 2 mps 751 mmHg 48%
12:00 +21°C° 0 mm 1 mps 750 mmHg 49%
13:00 +21°C° 0 mm 1 mps 750 mmHg 50%
14:00 +21°C° 0 mm 1 mps 750 mmHg 51%
15:00 +19°C° 0.4 mm 1 mps 750 mmHg 64%
16:00 +17°C° 0.4 mm 2 mps 750 mmHg 76%
17:00 +15°C° 0.4 mm 2 mps 750 mmHg 89%
18:00 +15°C° 1.1 mm 2 mps 750 mmHg 91%
19:00 +14°C° 1.1 mm 2 mps 750 mmHg 93%
20:00 +14°C° 1.1 mm 2 mps 750 mmHg 96%
21:00 +14°C° 0.6 mm 2 mps 750 mmHg 95%
22:00 +13°C° 0.6 mm 3 mps 750 mmHg 95%
23:00 +12°C° 0.6 mm 3 mps 749 mmHg 95%

6 August, Friday

Time Temperature Precipitation Wind Pressure Humidity
00:00 +12°C° 0.3 mm 3 mps 749 mmHg 96%
01:00 +12°C° 0.3 mm 3 mps 749 mmHg 97%
02:00 +12°C° 0.3 mm 3 mps 749 mmHg 97%
03:00 +12°C° 0.1 mm 3 mps 749 mmHg 97%
04:00 +12°C° 0.1 mm 3 mps 749 mmHg 96%
05:00 +12°C° 0.1 mm 3 mps 749 mmHg 96%
06:00 +13°C° 0 mm 3 mps 749 mmHg 96%
07:00 +13°C° 0 mm 3 mps 748 mmHg 95%
08:00 +13°C° 0 mm 3 mps 748 mmHg 95%
09:00 +14°C° 0 mm 3 mps 748 mmHg 93%
10:00 +14°C° 0 mm 4 mps 749 mmHg 91%
11:00 +14°C° 0 mm 4 mps 749 mmHg 89%
12:00 +15°C° 0 mm 4 mps 749 mmHg 87%
13:00 +15°C° 0 mm 4 mps 749 mmHg 85%
14:00 +15°C° 0 mm 4 mps 748 mmHg 83%
15:00 +15°C° 0.1 mm 4 mps 748 mmHg 84%
16:00 +15°C° 0.1 mm 4 mps 748 mmHg 85%
17:00 +15°C° 0.1 mm 4 mps 748 mmHg 86%
18:00 +14°C° 0.1 mm 3 mps 748 mmHg 89%
19:00 +14°C° 0.1 mm 3 mps 748 mmHg 92%
20:00 +13°C° 0.1 mm 3 mps 748 mmHg 95%
21:00 +13°C° 0.1 mm 3 mps 748 mmHg 96%
22:00 +13°C° 0.1 mm 3 mps 748 mmHg 96%
23:00 +14°C° 0.1 mm 3 mps 748 mmHg 97%

7 August, Saturday

Time Temperature Precipitation Wind Pressure Humidity
00:00 +14°C° 0.6 mm 3 mps 747 mmHg 97%
01:00 +14°C° 0.6 mm 3 mps 747 mmHg 98%
02:00 +14°C° 0.6 mm 3 mps 747 mmHg 98%
03:00 +14°C° 1.4 mm 3 mps 747 mmHg 98%
04:00 +14°C° 1.4 mm 3 mps 747 mmHg 98%
05:00 +14°C° 1.4 mm 3 mps 747 mmHg 98%
06:00 +16°C° 1.3 mm 3 mps 747 mmHg 98%
07:00 +16°C° 1.3 mm 3 mps 747 mmHg 98%
08:00 +16°C° 1.3 mm 3 mps 747 mmHg 98%
09:00 +16°C° 0.2 mm 3 mps 747 mmHg 98%
10:00 +16°C° 0.2 mm 3 mps 747 mmHg 97%
11:00 +17°C° 0.2 mm 4 mps 747 mmHg 96%
12:00 +17°C° 0 mm 4 mps 747 mmHg 95%
13:00 +17°C° 0 mm 4 mps 747 mmHg 94%
14:00 +18°C° 0 mm 4 mps 747 mmHg 93%
15:00 +18°C° 0.2 mm 4 mps 747 mmHg 94%
16:00 +17°C° 0.2 mm 4 mps 747 mmHg 95%
17:00 +17°C° 0.2 mm 4 mps 747 mmHg 96%
18:00 +17°C° 0.5 mm 4 mps 747 mmHg 97%
19:00 +17°C° 0.5 mm 4 mps 747 mmHg 98%
20:00 +18°C° 0.5 mm 4 mps 747 mmHg 98%
21:00 +17°C° 0.4 mm 4 mps 747 mmHg 98%
22:00 +17°C° 0.4 mm 4 mps 747 mmHg 98%
23:00 +17°C° 0.4 mm 4 mps 747 mmHg 97%

8 August, Sunday

Time Temperature Precipitation Wind Pressure Humidity
00:00 +17°C° 0.1 mm 3 mps 747 mmHg 98%
01:00 +16°C° 0.1 mm 3 mps 747 mmHg 98%
02:00 +16°C° 0.1 mm 2 mps 747 mmHg 98%
03:00 +16°C° 0 mm 2 mps 747 mmHg 98%
04:00 +16°C° 0 mm 2 mps 747 mmHg 98%
05:00 +16°C° 0 mm 2 mps 746 mmHg 98%
06:00 +17°C° 0 mm 2 mps 746 mmHg 94%
07:00 +19°C° 0 mm 2 mps 746 mmHg 90%
08:00 +20°C° 0 mm 2 mps 746 mmHg 86%
09:00 +23°C° 0 mm 2 mps 747 mmHg 76%
10:00 +25°C° 0 mm 2 mps 747 mmHg 66%
11:00 +27°C° 0 mm 2 mps 747 mmHg 57%
12:00 +28°C° 0 mm 2 mps 747 mmHg 54%
13:00 +29°C° 0 mm 3 mps 747 mmHg 52%
14:00 +30°C° 0 mm 3 mps 747 mmHg 49%
15:00 +28°C° 0.4 mm 3 mps 747 mmHg 61%
16:00 +26°C° 0.4 mm 2 mps 747 mmHg 72%
17:00 +24°C° 0.4 mm 2 mps 748 mmHg 83%
18:00 +23°C° 0.7 mm 2 mps 748 mmHg 87%
19:00 +22°C° 0.7 mm 1 mps 749 mmHg 91%
20:00 +21°C° 0.7 mm 1 mps 749 mmHg 95%
21:00 +20°C° 0.1 mm 1 mps 749 mmHg 96%
22:00 +20°C° 0.1 mm 1 mps 749 mmHg 96%
23:00 +20°C° 0.1 mm 1 mps 750 mmHg 96%
Show more

We Need Your Consent

Meteoprog and our Service Providers may store and access personal data such as cookies, device identifiers or other similar technologies on your device and process such data to personalise content and ads, as well as provide social media features and to analyse the traffic.

  • Store and/or access information on your device

    Cookies, device identifiers or other information can be stored or accessed on your device for the purposes indicated above.

  • Personalised ads and content, ad and content measurement, audience insights, and products development

    Ads and content can be personalised based on a profile. More data can be added to better personalise ads and content. Ad and content performance can be measured. Insights about the audience who saw the ads and content can be derived. Such data can be used to develop or improve user’s experience, systems and software.

By clicking ‘I Agree’ you will allow the use of indicated cookies, device identifiers, web beacons or other similar technologies. Your settings can be changed in the browser on your device.

For certain purposes, legitimate interests may be relied on, rather than consent. You can read more about this in our Privacy and Cookie Policy.